User: anonymous   Login
Location: Unspecified
(0.0000°N, 0.0000°E)
Time: 09:13:07
(UTC+00:00)
Language:

Kosmos-2233 - Orbit

View from above orbital plane
View from above orbital plane
View from above satellite
View from above satellite

Ground track
Ground track

The orbit data is extracted from the following two-line orbital elements,

1 22487U 93008A   18109.90181469  .00000037  00000-0  22531-4 0  9997
2 22487  82.9460 232.9090 0038722 160.3696 320.9797 13.75772554260508
Epoch (UTC): 19 April 2018 21:38:36
Eccentricity: 0.0038722
inclination: 82.9460°
perigee height: 950 km
apogee height: 1007 km
right ascension of ascending node: 232.9090°
argument of perigee: 160.3696°
revolutions per day: 13.75772554
mean anomaly at epoch: 320.9797°
orbit number at epoch: 26050

The dashed part of the orbit path shows where the satellite is in the earth's shadow,  

DLR